(2020 KP3) |
Classification: Apollo [NEO] SPK-ID: 54017197 |
[ hide orbit diagram ]
For accurate long-term ephemerides, please instead use our Horizons system.This orbit viewer was implemented using two-body methods, and hence should not be used for determining accurate long-term trajectories (over several years or decades) or planetary encounter circumstances.
Orbital Elements at Epoch 2459000.5 (2020-May-31.0) TDB
Reference: JPL 10 (heliocentric ecliptic J2000)
Element | Value | Uncertainty (1-sigma) | Units |
e | .5087385679525479 | 1.126e-06 | |
a | 2.05565963093386 | 4.7478e-06 | au |
q | 1.009866294094705 | 4.7869e-08 | au |
i | 5.345550581927665 | 1.1427e-05 | deg |
node | 240.5212889706103 | 9.1976e-06 | deg |
peri | 350.997468565765 | 4.2734e-05 | deg |
M | 5.406108140773328 | 2.7985e-05 | deg |
tp | 2458984.333817923372 (2020-May-14.83381792) | 3.5616e-05 | TDB |
period | 1076.527771187616 2.95 | 0.0037296 1.021e-05 | d yr |
n | .3344084654712168 | 1.1585e-06 | deg/d |
Q | 3.101452967773014 | 7.1632e-06 | au |
|
| | Orbit Determination Parameters
Additional Information
|
[ show covariance matrix ]
Physical Parameter Table
Parameter |
Symbol |
Value |
Units |
Sigma |
Reference |
Notes |
absolute magnitude |
H |
25.891 |
|
.4012 |
10 |
autocmod 2.8 |
|
[ show close-approach data ]
|